Preview of NWS' New Version of Forecast
This preview is not operational and should not be used for support decisions.

Regional Weather Roundup (RWR)

Issued by National Weather Service (NWS)

                            
000
ASUS43 KBIS 211710
RWRND 

NORTH DAKOTA REGIONAL WEATHER ROUNDUP
NATIONAL WEATHER SERVICE BISMARCK ND
1100 AM CST THU FEB 21 2019

NOTE: "FAIR" INDICATES FEW OR NO CLOUDS BELOW 12,000 FEET WITH NO
SIGNIFICANT WEATHER AND/OR OBSTRUCTIONS TO VISIBILITY.


NDZ001>003-009>011-017-211800-
NORTHWEST NORTH DAKOTA
  
CITY           SKY/WX    TMP DP  RH WIND       PRES   REMARKS
WILLISTON      LGT SNOW   9   2  73 NW6       30.10S WCI  -1          
MINOT          CLOUDY     9   2  73 W7        30.08R WCI  -2          
MINOT AFB      FLURRIES   5   0  78 W8        30.07R WCI  -8          
$$
 
NDZ018>021-031>035-040>046-211800-
SOUTHWEST NORTH DAKOTA
  
CITY           SKY/WX    TMP DP  RH WIND       PRES   REMARKS
BISMARCK       CLOUDY    13   4  67 W3        30.12R                  
DICKINSON      CLOUDY     6  -2  69 W14       30.02R WCI -11          
GARRISON         N/A      7   2  80 NW12      30.07R WCI  -8          
HETTINGER ARPT SUNNY      1  -5  75 W8        30.05R WCI -13          
$$
 
NDZ004>008-012>016-024-026-027-054-211800-
NORTHEAST NORTH DAKOTA
  
CITY           SKY/WX    TMP DP  RH WIND       PRES   REMARKS
GRAND FORKS    MOSUNNY   15   9  76 NW9       30.12R WCI   3          
GRND FRKS AFB  CLOUDY    17  10  74 NW7       30.12R WCI   8          
DEVILS LAKE    LGT SNOW  11   7  84 W6        30.10R FOG     WCI   1  
$$
 
NDZ022-023-025-028>030-036>039-047>053-211800-
SOUTHEAST NORTH DAKOTA
  
CITY           SKY/WX    TMP DP  RH WIND       PRES   REMARKS
FARGO          CLOUDY    15  12  88 NW6       30.12R FOG     WCI   6  
JAMESTOWN      CLOUDY    12   7  80 W6        30.09R WCI   3          
$$